Location: Zagreb
(45.8000°N, 16.0000°E)
Time: 01:46:08
(UTC+02:00)

Transit 2A Rocket - Pass Details

Date: 31 January 2022
Orbit: 592 x 909 km, 66.7° (Epoch: 26 May)

Event Time Altitude Azimuth Distance (km) Brightness Sun altitude
Rises 16:43:31 0° 193° (SSW) 3,473 9.0 1.8°
Reaches altitude 10° 16:46:03 10° 188° (S) 2,561 8.3 1.4°
Maximum altitude 16:51:48 49° 115° (ESE) 1,156 5.8 0.5°
Drops below altitude 10° 16:57:37 10° 42° (NE) 2,589 7.2 -0.4°
Sets 17:00:11 0° 37° (NE) 3,515 7.9 -0.8°
